User: anonymous   Login
Location: Unspecified
(0.0000°N, 0.0000°E)
Time: 18:42:14
(UTC+01:00)
Language:

Iridium 33 - Orbit

View from above orbital plane
View from above orbital plane
View from above satellite
View from above satellite

Ground track
Ground track

The orbit data is extracted from the following two-line orbital elements,

1 24946U 97051C   14327.47944572  .00000402  00000-0  13902-3 0  1701
2 24946 086.3860 318.7032 0009473 065.1617 046.1194 14.33236614899858
Epoch (UTC): 23 November 2014 11:30:24
Eccentricity: 0.0009473
inclination: 86.3860°
perigee height: 774 km
apogee height: 788 km
right ascension of ascending node: 318.7032°
argument of perigee: 65.1617°
revolutions per day: 14.33236614
mean anomaly at epoch: 46.1194°
orbit number at epoch: 89985

The dashed part of the orbit path shows where the satellite is in the earth's shadow,  

DLR